Home   Weather   46°13'N, 71°47'W   Past weeks
Flag for Canada

Past Weather in 46°13'N, 71°47'W, Canada — Yesterday and Last 2 Weeks

Now
-3 °F

Frigid.


Feels Like: -13 °F
Forecast: 7 / -9 °F
Wind: 5 mph from West

Location: Trois Rivieres

Current Time: Jan 18, 2020 at 10:29:24 am

Latest Report: Jan 18, 2020 at 10:00 am


Visibility: N/A

Pressure: 30.56 "Hg

Humidity: 70%

Dew Point: -10 °F

Location of 46°13'N, 71°47'WLocation

Past Weather in 46°13'N, 71°47'W — Graph

°F

46°13'N, 71°47'W Temperature Yesterday

Maximum temperature yesterday: 5 °F (at 3:00 pm)
Minimum temperature yesterday: -6 °F (at 8:00 am)
Average temperature yesterday: -1 °F

High & Low Weather Summary for the Past Weeks

 TemperatureHumidityPressure
High38 °F (Jan 3, 2:00 pm)100% (Jan 3, 9:00 am)30.75 "Hg (Jan 3, 9:00 am)
Low-6 °F (Jan 17, 8:00 am)55% (Jan 17, 12:00 pm)29.62 "Hg (Jan 5, 2:00 am)
Average19 °F83%30.11 "Hg
* Reported Jan 3 9:00 am — Jan 18 9:00 am, 46°13'N, 71°47'W. Weather by CustomWeather, © 2020

Note: Actual official high and low records may vary slightly from our data, if they occured in-between our weather recording intervals... More about our weather records

46°13'N, 71°47'W Weather History for the Previous 24 Hours

Scroll right to see more
 ConditionsComfort  
Time TempWeatherWind HumidityBarometerVisibility
9:00 am
Sat, Jan 18
-3 °FFrigid.5 mph68%30.59 "HgN/A
8:00 am-3 °FFrigid.3 mph68%30.62 "HgN/A
7:00 am-4 °FFrigid.5 mph71%30.65 "HgN/A
6:00 am-4 °FFrigid.5 mph71%30.67 "HgN/A
5:00 am-4 °FFrigid.3 mph74%30.67 "HgN/A
4:00 am-4 °FFrigid.3 mphN/A30.69 "HgN/A
3:00 am-3 °FFrigid.2 mph72%30.70 "HgN/A
2:00 am-3 °FFrigid.3 mph71%30.70 "HgN/A
1:00 am-2 °FFrigid.3 mph72%30.72 "HgN/A
12:00 am-2 °FFrigid.2 mph79%30.74 "HgN/A
11:00 pm
Fri, Jan 17
-1 °FFrigid.5 mph72%30.75 "HgN/A
10:00 pm-1 °FFrigid.7 mph74%30.73 "HgN/A
9:00 pm-1 °FFrigid.6 mph75%30.73 "HgN/A
8:00 pm0 °FFrigid.7 mph71%30.72 "HgN/A
7:00 pm1 °FFrigid.2 mph68%30.74 "HgN/A
6:00 pm1 °FFrigid.3 mph68%30.73 "HgN/A
5:00 pm3 °FFrigid.5 mph58%30.72 "HgN/A
4:00 pm4 °FFrigid.6 mph59%30.71 "HgN/A
3:00 pm5 °FFrigid.9 mph55%30.70 "HgN/A
2:00 pm4 °FFrigid.9 mph70%30.69 "HgN/A
1:00 pm3 °FFrigid.6 mph55%30.70 "HgN/A
12:00 pm0 °FFrigid.9 mph55%30.73 "HgN/A
11:00 am-2 °FFrigid.7 mph58%30.73 "HgN/A
10:00 am-4 °FFrigid.7 mph60%30.75 "HgN/A
Weather by CustomWeather, © 2020

See weather overview

Advertising